Starlink 1279

operational
NORAD ID: 45360 Int'l Des: 2020-019 Owner: SPXS Country: US Constellation: starlink
LEOCIRCULARSTARLINK_TYPE

Starlink 1279について

説明を読み込み中...

リアルタイム位置

3D地球を読み込み中...

次回通過

高度履歴

Altitude vs Time

uPlot chart will show altitude changes over time

軌道要素

1 45360U 20019A 25352.86288552 .00087640 00000-0 19963-2 0 9996
2 45360 53.0483 126.0948 0005270 192.9060 167.1811 15.42208499318140
Epoch: Dec 18, 2025 • Age: 11 hours

現在のステータス

高度 456.9 km
速度 7.64 km/s
衛星直下点 -50.87°S, 140.02°W
打ち上げ日 Mar 18, 2020
運用期間 5.7 years
タイプ internet

技術仕様

分類 Payload
質量 260.00 kg
乾燥質量 248.00 kg
総質量 260.00 kg
長さ 0.20 m
直径 2.80 m
スパン 9.00 m
形状 Box + pan
製造者 SPXS
バスタイプ Starlink
フェーズステータス In Orbit
所有者/国 SPXS/US

大規模コンステレーション

Loading constellations...